www.pogodaiklimat.ru

Погода и климат >> Архив погоды >> Южная Африка >> Vioolsdrif


ПОГОДА в Vioolsdrif

  • Прогноз погоды в Vioolsdrif
  • Монитор погоды в Vioolsdrif
  • Климат города

АРХИВ ПОГОДЫ в Vioolsdrif

Время (UTC), дата Ветер
(напр.,м/с)
 
Видим.   Явления Облачность Т
(С)
Тd
(С)
f
(%)
Тe
(С)
Тes
(С)
Комфортность P
(гПа)
Po
(гПа)
Тmin
(С)
Tmax
(С)
R
(мм)
R24
(мм)
S
(см)
15 14.10 Ю 4 н/о н/о +23.6 +5.2 30 +23 +23 комфорт 856.3 993.4 +23.6 +27.3
18 14.10 Ю 5 н/о н/о +19.4 +6.9 44 +20 +20 857.1 996.5 +19.4 +27.3
21 14.10 Ю 5 н/о н/о +16.7 +7.4 54 +16 +16 857.7 998.7 +16.6 +27.3
00 15.10 Ю 2 н/о н/о +16.2 +6.9 54 +16 +16 857.1 998.3 +16.1 +27.3
03 15.10 З 1 н/о н/о +14.8 +7.6 62 +15 +15 856.6 998.5 +14.7 +27.3
06 15.10 С 2 н/о н/о +17.8 +7.6 51 +19 +19 859.2 999.7 +14.0
09 15.10 ЮЗ 1 н/о н/о +22.5 +5.6 33 +23 +23 комфорт 861.5 999.7 +14.0 +23.5
12 15.10 С 2 н/о н/о +25.8 +2.0 21 +24 +24 комфорт 860.7 997.1 +14.0 +26.9
15 15.10 Ю 1 н/о н/о +29.4 -1.5 13 +26 +26 жарко 859.9 994.4 +26.0 +29.6
18 15.10 ЮЗ 6 н/о н/о +23.7 +5.8 31 +24 +24 комфорт 858.8 996.1 +23.7 +29.6
21 15.10 Ю 2 н/о н/о +21.3 +6.2 37 +22 +22 комфорт 858.6 997.2 +21.2 +29.6
00 16.10 С 2 н/о н/о +18.5 +7.4 48 +20 +20 857.3 997.3 +18.4 +29.6
03 16.10 СЗ 1 н/о н/о +17.0 +7.4 53 +18 +18 856.7 997.4 +17.0 +29.6
06 16.10 Ю 3 н/о н/о +20.1 +6.9 42 +21 +21 комфорт 860.2 999.6 +17.0
09 16.10 СЗ 1 н/о н/о +26.2 +4.9 25 +25 +25 комфорт 862.4 998.8 +17.0 +26.8
12 16.10 В 2 н/о н/о +31.2 -1.1 12 +28 +28 жарко 861.8 995.5 +17.0 +31.2
15 16.10 Ю 6 н/о н/о +32.4 -0.2 12 +29 +29 жарко 860.3 993.3 +31.0 +34.3
18 16.10 Ю 4 н/о н/о +26.4 +3.2 22 +25 +25 комфорт 859.2 995.2 +26.4 +34.3
21 16.10 Ю 4 н/о н/о +23.3 +1.8 24 +23 +23 комфорт 859.2 996.8 +23.3 +34.3
03 17.10 Ю 3 н/о н/о +20.5 -2.4 21 +21 +21 комфорт 857.9 996.8 +19.1 +34.3
06 17.10 С 1 н/о н/о +22.7 +0.1 22 +22 +22 комфорт 860.1 998.1 +18.1
09 17.10 З 2 н/о н/о +28.4 -1.4 14 +25 +25 комфорт 861.1 996.2 +18.1 +28.5
12 17.10 СВ 2 н/о н/о +33.0 -3.6 9 +29 +29 жарко 860.2 992.9 +18.1 +34.1
15 17.10 С 2 н/о н/о +33.8 -3.0 9 +30 +30 жарко 858.2 990.4 +32.7 +35.3
18 17.10 Ю 3 н/о н/о +28.9 +2.5 18 +27 +27 жарко 856.7 991.2 +28.9 +35.3
03 18.10 Ю 4 н/о н/о +23.4 +0.7 22 +22 +22 комфорт 854.7 991.8 +21.0 +35.3
06 18.10 СЗ 1 н/о н/о +24.4 +3.9 26 +24 +24 комфорт 856.4 993.1 +19.7
09 18.10 С 1 н/о н/о +30.9 +0.6 14 +28 +28 жарко 858.6 992.2 +19.7 +31.3
12 18.10 СВ 2 н/о н/о +36.4 -1.0 9 +33 +33 жарко 858.1 989.0 +19.7 +37.0
15 18.10 Ю 6 н/о н/о +35.0 +1.8 12 +32 +32 жарко 856.4 987.9 +35.0 +37.5
18 18.10 Ю 5 н/о н/о +28.9 +0.9 16 +26 +26 жарко 856.0 990.4 +28.9 +37.5
21 18.10 СЗ 2 н/о н/о +24.0 +5.1 29 +24 +24 комфорт 855.3 992.2 +24.0 +37.5
00 19.10 С 2 н/о н/о +20.1 +5.5 38 +22 +22 комфорт 853.9 992.6 +20.0 +37.5
03 19.10 СЗ 2 н/о н/о +19.1 +4.2 37 +20 +20 854.1 993.4 +19.1 +37.5
06 19.10 С 1 н/о н/о +22.2 +4.0 30 +22 +22 комфорт 858.0 996.0 +18.1
09 19.10 СВ 2 н/о н/о +28.3 -0.4 15 +26 +26 жарко 860.8 995.9 +18.1 +28.6
12 19.10 СВ 2 н/о н/о +34.6 -0.9 10 +31 +31 жарко 860.4 992.3 +18.1 +34.8
15 19.10 Ю 5 н/о н/о +34.0 +5.0 16 +31 +31 жарко 858.3 990.4 +33.8 +36.7
18 19.10 Ю 7 н/о н/о +30.1 +4.3 19 +28 +28 жарко 858.1 992.1 +30.0 +36.7
21 19.10 Ю 7 н/о н/о +27.4 +0.5 17 +25 +25 комфорт 859.6 995.1 +27.4 +36.7
00 20.10 Ю 7 н/о н/о +25.1 -4.0 14 +23 +23 комфорт 857.9 994.4 +25.1 +36.7
03 20.10 Ю 8 н/о н/о +23.8 +1.0 22 +23 +23 комфорт 858.0 995.2 +23.8 +36.7
06 20.10 Ю 4 н/о н/о +24.9 +1.9 22 +24 +24 комфорт 860.9 997.8 +22.7
09 20.10 В 3 н/о н/о +30.4 -1.8 12 +27 +27 жарко 863.6 997.8 +22.7 +30.6
12 20.10 В 3 н/о н/о +34.1 -1.3 10 +30 +30 жарко 862.2 994.5 +22.7 +34.6
15 20.10 В 4 н/о н/о +35.7 -6.9 6 +31 +31 жарко 860.2 991.6 +34.3 +36.3
18 20.10 ЮВ 5 н/о н/о +33.6 -10.8 5 +29 +29 жарко 860.1 992.5 +33.2 +36.3
21 20.10 Ю 5 н/о н/о +31.1 -10.4 6 +27 +27 жарко 859.7 993.3 +30.9 +36.3
00 21.10 Ю 4 н/о н/о +28.2 -7.3 9 +25 +25 комфорт 858.2 993.1 +28.1 +36.3
03 21.10 Ю 6 н/о н/о +25.8 -9.2 9 +23 +23 комфорт 858.4 994.6 +25.8 +36.3
06 21.10 Ю 5 н/о н/о +26.3 -7.5 10 +23 +23 комфорт 860.4 996.5 +24.0
09 21.10 ЮВ 3 н/о н/о +30.2 -5.8 9 +26 +26 жарко 860.7 994.8 +24.0 +30.6

 

Местоположение метеостанции Vioolsdrif (Южная Африка): широта -28.70 долгота 17.60 высота над уровнем моря 168 м.

В архиве по умолчанию представлена погода в Vioolsdrif за последнюю неделю. Архивные данные за месяц целиком и за предыдущие месяцы, начиная с января 2011 года, Вы можете получить, выбрав интересующий диапазон дат из раскрывающегося списка и нажав кнопку "Ввод!".


*Определитесь, кто Вы:
робот инопланетянин человек

Внимание! Время в таблицах - всемирное. Для получения местного времени необходимо прибавить поправку, которая в Vioolsdrif равна 2 ч.

Смотрите также архив погоды в соседних городах и на ближайших метеорологических станциях:

Погода в Port Nolloth (Южная Африка) (92 км)
Погода в Alexander Bay (Южная Африка) (106 км)
Погода в Springbok (Южная Африка) (111 км)
Погода в Koingnaas (Южная Африка) (170 км)
Погода в Pofadder (Южная Африка) (180 км)
Погода в Porterville (Южная Африка) (198 км)
Погода в Keetmanshoop (Намибия) (247 км)
Погода в Augrabies Falls (Южная Африка) (268 км)
Погода в Nieuwoudtville (Южная Африка) (327 км)
Погода в Luderitz Diaz Point (Намибия) (337 км)

Пояснения к столбцам:

Ветер - указаны скорость ветра в м/с - средняя за 10 мин, порывы в срок и между сроками (в фигурных скобках) и направление, откуда дует ветер: С - северный, СВ - северо-восточный, В - восточный, ЮВ - юго-восточный, Ю - южный, ЮЗ - юго-западный, З - западный, СЗ - северо-западный.
Видимость - горизонтальная дальность видимости в метрах или километрах. При видимости от 1 до 10 км при отсутствии осадков обычно наблюдается дымка, при ухудшении видимости до 1 км и менее - туман. В сухую погоду видимость может ухудшаться дымом, пылью или мглою.
Явления - указаны атмосферные явления, наблюдавшиеся в срок или в последний час перед сроком; фигурными скобками обозначены явления, наблюдавшиеся между сроками (за 1-3 часа до срока); квадратными скобками обозначены град или гололедные отложения с указанием их диаметра в мм.
Облачность - указаны через наклонную черту общая и нижняя облачность в баллах и высота нижней границы облаков в метрах; квадратными скобками обозначены формы облаков: Ci - перистые, Cs - перисто-слоистые, Cc - перисто-кучевые, Ac - высококучевые, As - высокослоистые, Sc - слоисто-кучевые, Ns - слоисто-дождевые, Cu - кучевые, Cb - кучево-дождевые. Подробнее классификацию облаков см. в Атласе облаков (PDF).
T - Температура воздуха - температура, измеренная на высоте 2 м над землей.
Td - Температура точки росы - температура, при понижении до которой содержащийся в воздухе водяной пар достигнет насыщения.
f - Относительная влажность воздуха - влажноcть воздуха, измеренная на высоте 2 м над землей.
Te - Эффективная температура - температура, которую ощущает одетый по сезону человек в тени. Характеристика душности погоды. При расчете учитывается влияние влажности воздуха и скорости ветра на теплоощущения человека.
Tes - Эффективная температура на солнце - температура, которую ощущает человек, с поправкой на солнечный нагрев. Характеристика знойности погоды. Зависит от высоты солнца над горизонтом, облачности и скорости ветра. Ночью, в пасмурную погоду, а также при ветре 12 м/с и более поправка равна нулю.
P - Атмосферное давление - приведенное к уровню моря атмосферное давление.
Po - Атмосферное давление - измеренное на уровне метеостанции атмосферное давление.
Tmin - Минимальная температура - минимум температуры воздуха на высоте 2 м над землей.
Tmax - Максимальная температура - максимум температуры воздуха на высоте 2 м над землей.
R - Количество осадков - Количество выпавших осадков за период времени, мм. При наведении курсора мыши на число - период времени, за который выпало указанное количество осадков.
R24 - Количество осадков - Количество выпавших осадков за 24 часа, мм.
S - Снежный покров - Высота снежного покрова, см. При наведении курсора мыши на число - состояние снежного покрова и степень покрытия местности в баллах.